Location: Meanaryar
(48.4161°N, 4.7315°W)
Time: 15:12:09
(UTC+00:00)

Cosmos 1092 Rocket - Pass Details

Date: 22 January 2021
Orbit: 954 x 995 km, 83.0° (Epoch: 01 March)

Event Time Altitude Azimuth Distance (km) Brightness Sun altitude
Rises 04:08:52 0° 2° (N) 3,645 7.2 -37.8°
Reaches altitude 10° 04:12:51 10° 27° (NNE) 2,695 6.7 -37.2°
Maximum altitude 04:15:55 14° 57° (ENE) 2,417 6.7 -36.7°
Drops below altitude 10° 04:18:57 10° 88° (E) 2,693 7.1 -36.2°
Sets 04:22:55 0° 113° (ESE) 3,639 7.7 -35.6°
